カタログに戻る

CZ-6A DEB

運用中SSO
NORAD 56262·DEBRIS·🇨🇳 China

打ち上げ Nov 11, 2022 から Taiyuan Satellite Launch Center

Loading…

次のパス (今後24時間)

TLE

最新Source: Space-Track

元期: Sep 14, 2026, 11:59 UTC

1 56262U 22151ACE 26257.49959356  .00001414  00000-0  71677-3 0  9995
2 56262  98.8395 264.4019 0046533  45.9646 314.5347 14.17078225185857

AllMySatでCZ-6A DEBをリアルタイム追跡

Download on the App Store